Regional Weather Roundup
Issued by NWS

Home | Current Version | Previous Version | Text Only | Print | Product List | Glossary Off
Versions: 1 2 3 4 5 6 7 8 9 10 11 12 13 14 15 16 17 18 19 20 21 22 23 24 25 26 27 28 29 30 31 32 33 34 35 36 37 38 39 40 41 42 43 44 45 46 47 48 49 50

040
ASUS43 KLMK 251210
RWRKY
KENTUCKY REGIONAL WEATHER ROUNDUP
NATIONAL WEATHER SERVICE LOUISVILLE KY
800 AM EDT WED APR 25 2018

NOTE "FAIR" INDICATES FEW OR NO CLOUDS BELOW 12,000 FEET
WITH NO SIGNIFICANT WEATHER AND/OR OBSTRUCTIONS TO VISIBILITY.

KYZ001>023-026-027-061>063-070>075-251300-
WESTERN AND SOUTH CENTRAL KENTUCKY

CITY           SKY/WX    TMP DP  RH WIND       PRES   REMARKS
PADUCAH        FAIR      52  49  89 CALM      29.99R FOG
HENDERSON      FOG       46  46 100 CALM      30.01R VSB<1/4
OWENSBORO      FOG       52  51  97 NW6       30.01R VSB 1/8
HOPKINSVILLE   FOG       51  51 100 CALM      30.00S VSB 1/8
BOWLING GREEN  CLOUDY    56  53  90 NW5       29.98R FOG
GLASGOW        CLOUDY    54  51  90 NW3       29.97R
$$

KYZ024-025-028>034-038-045-046-053-251300-
NORTH CENTRAL KENTUCKY

CITY           SKY/WX    TMP DP  RH WIND       PRES   REMARKS
LOUISVILLE/SDF CLOUDY    56  51  84 NW9       29.96R
LOUISVILLE/LOU CLOUDY    56  53  90 NW8       29.97R
FORT KNOX      CLOUDY   N/A N/A N/A W6        29.99R
$$

KYZ035>037-039>044-047>052-055>060-089>105-251300-
NORTHEAST KENTUCKY

CITY           SKY/WX    TMP DP  RH WIND       PRES   REMARKS
LEXINGTON      PTSUNNY   53  50  89 NW5       29.93R FOG
COVINGTON      CLOUDY    53  50  89 N8        29.92R
FRANKFORT      CLOUDY    54  50  86 NW8       29.92R
$$

KYZ054-064>069-076>088-106>120-251300-
SOUTHEAST KENTUCKY

CITY           SKY/WX    TMP DP  RH WIND       PRES   REMARKS
JACKSON        LGT RAIN  52  51  97 W5        29.90R FOG
LONDON         CLOUDY    53  51  93 N8        29.92R
SOMERSET       CLOUDY    52  52 100 N5        29.95R
MIDDLESBORO    CLOUDY    55  53  95 CALM      29.91R
MONTICELLO     CLOUDY    54  52  93 NW6       29.96R
$$





USA.gov is the U.S. government's official web portal to all federal, state and local government web resources and services.